TOKYO_INTL_AIRPORT current weather conditions

sailwx.info

Wind from 340 at 17 knots gusting 27

Air temperature 6.0° C
Visibility: greater than 5.4 NM
Dewpoint 4.0° C
Present weather: Light rain showers.

Last reported at 2017-Mar-27 01:36 UTC.
Time now 2017-Mar-27 02:45 UTC

Location: N 35°33' E 139°47'.
View on Google Maps.

See reports from other nearby stations

  
Tides and Currents Weather Stations Pressure Air Temp Water Temp Dewpoint Dewpoint Depression Visibility Wind Speed Wind Dir Waves Ship Positions
date/time (UTC)wind fromknots sea level pressurealtimeterstation pressurevisibilityair tempwater tempwave heightnotes
2017-Mar-27 01:36 340 17 gusting 27 5.4 6.0 Light rain showers.
2017-Mar-27 01:30 350 19 5.4 6.0 Light rain showers.
2017-Mar-27 01:22 350 19 gusting 28 5.4 6.0 Light rain showers.
2017-Mar-27 01:20 350 20 5.4 6.0 Light rain showers.
2017-Mar-27 01:10 360 20 gusting 29 5.4 6.0 Light rain showers.
2017-Mar-27 01:00 360 21 4.3 6.0 Light rain showers.
2017-Mar-27 00:30 360 21 gusting 32 5.4 6.0 Light rain showers.
2017-Mar-27 00:00 360 25 5.4 5.0 Light rain showers.
2017-Mar-26 23:33 360 24 gusting 34 5.4 5.0 Light rain showers.
2017-Mar-26 23:30 350 24 gusting 34 5.4 5.0 Light rain showers.
2017-Mar-26 23:03 340 18 gusting 28 4.9 4.0 Light rain showers.
2017-Mar-26 23:00 340 18 4.9 4.0 Light rain showers.
2017-Mar-26 22:33 330 18 gusting 27 4.9 4.0 Light rain showers.
2017-Mar-26 22:30 330 17 4.9 4.0 Light rain showers.
2017-Mar-26 22:22 330 17 4.9 3.0 Light rain showers.
2017-Mar-26 22:13 330 15 gusting 26 4.3 3.0 Rain showers.
2017-Mar-26 22:00 330 15 4.3 3.0 Rain showers.
2017-Mar-26 21:42 330 20 gusting 29 4.3 3.0 Rain showers.
2017-Mar-26 21:36 330 20 gusting 29 4.3 3.0 Light rain showers.
2017-Mar-26 21:30 340 19 4.3 3.0 Light rain showers.
2017-Mar-26 21:00 340 18 4.3 4.0 Rain showers.
2017-Mar-26 20:30 340 19 4.3 4.0 Light rain showers.
2017-Mar-26 20:24 340 20 gusting 31 4.9 4.0 Light rain showers.
2017-Mar-26 20:00 340 21 4.9 4.0 Light rain showers.
2017-Mar-26 19:44 340 20 gusting 29 4.3 5.0 Light rain showers.
2017-Mar-26 19:30 340 21 4.9 5.0 Light rain showers.
2017-Mar-26 19:01 340 17 gusting 27 5.4 5.0 Light rain showers.
2017-Mar-26 19:00 340 18 5.4 5.0 Light rain showers.
2017-Mar-26 18:30 330 17 5.4 5.0 Light rain showers.
2017-Mar-26 18:18 330 14 gusting 25 4.3 5.0 Rain showers.
2017-Mar-26 18:16 330 15 4.3 5.0 Rain showers.
2017-Mar-26 18:00 320 13 3.8 5.0 Light rain showers.
2017-Mar-26 17:42 340 14 3.8 6.0 Rain showers.
2017-Mar-26 17:30 340 14 3.8 6.0 Light rain showers.
2017-Mar-26 17:00 340 15 4.3 6.0 Light rain showers.
2017-Mar-26 16:30 340 15 4.3 6.0 Light rain showers.
2017-Mar-26 16:00 340 18 4.9 6.0 Light rain showers.
2017-Mar-26 15:30 340 18 4.9 6.0 Light rain.
2017-Mar-26 15:00 340 14 5.4 6.0 Light rain.
2017-Mar-26 14:30 340 14 4.3 7.0 Light rain.
2017-Mar-26 14:00 340 14 4.3 7.0 Light rain.
2017-Mar-26 13:30 330 13 3.2 6.0 Light rain.
2017-Mar-26 13:11 340 14 3.8 7.0 Light rain.
2017-Mar-26 13:00 340 14 4.9 7.0 Light rain.
2017-Mar-26 12:30 340 13 4.9 7.0 Light rain.
2017-Mar-26 12:00 340 12 4.9 7.0 Light rain.
2017-Mar-26 11:30 340 13 4.3 7.0 Light rain.
2017-Mar-26 11:00 340 13 4.3 7.0 Light rain.
2017-Mar-26 10:40 330 13 3.8 7.0 Light rain.
2017-Mar-26 10:30 330 9 4.3 7.0 Light rain.
2017-Mar-26 10:00 340 12 3.2 7.0 Light rain.
2017-Mar-26 09:45 340 11 2.7 7.0 Light rain. Mist.
2017-Mar-26 09:30 340 12 4.3 7.0 Light rain.
2017-Mar-26 09:00 340 11 4.3 7.0 Light rain.
2017-Mar-26 08:30 340 9 4.3 7.0 Light rain.
2017-Mar-26 08:28 340 9 4.3 7.0 Light rain.
2017-Mar-26 08:00 360 12 3.8 7.0 Light rain.
2017-Mar-26 07:49 350 12 3.2 7.0 Light rain.
2017-Mar-26 07:30 340 11 3.2 7.0 Light rain. Mist.
2017-Mar-26 07:09 340 12 4.9 7.0 Light rain.
2017-Mar-26 07:00 350 11 4.9 7.0 Light rain.
2017-Mar-26 06:49 350 12 4.3 7.0 Light rain.
2017-Mar-26 06:30 350 11 4.9 7.0 Light rain.
2017-Mar-26 06:00 340 11 4.9 7.0 Light rain.
2017-Mar-26 05:30 340 9 5.4 7.0 Light rain.
2017-Mar-26 05:00 010 13 3.2 7.0 Light rain.
2017-Mar-26 04:45 010 13 2.7 7.0 Light rain. Mist.
2017-Mar-26 04:30 350 9 2.6 7.0 Light rain. Mist.
2017-Mar-26 04:00 330 7 1.9 6.0 Light rain. Mist.
2017-Mar-26 03:30 340 8 2.4 6.0 Light rain. Mist.
2017-Mar-26 03:27 350 8 2.7 6.0 Light rain. Mist.
2017-Mar-26 03:14 340 8 3.2 6.0 Light rain. Mist.
2017-Mar-26 03:00 340 11 3.8 6.0 Light rain.
2017-Mar-26 02:30 360 13 4.9 7.0 Light rain.
2017-Mar-26 02:00 350 11 4.9 7.0 Light rain.
2017-Mar-26 01:30 350 9 4.3 7.0 Light rain.
2017-Mar-26 01:00 340 8 4.3 6.0 Light rain.
2017-Mar-26 00:30 350 9 3.8 6.0 Light rain.
2017-Mar-26 00:00 340 8 3.8 6.0 Light rain.
2017-Mar-25 23:30 350 9 4.3 6.0 Light rain.
2017-Mar-25 23:00 350 12 5.4 6.0 Light rain.
2017-Mar-25 22:30 350 11 5.4 6.0 Light rain.
2017-Mar-25 22:00 340 13 5.4 6.0 Light rain.
2017-Mar-25 21:30 350 12 5.4 6.0 Light rain.
2017-Mar-25 21:00 340 12 5.4 6.0 Light rain.
2017-Mar-25 20:30 340 11 5.4 6.0 Light rain.
2017-Mar-25 20:00 350 9 5.4 6.0 Light rain.
2017-Mar-25 19:30 360 11 5.4 7.0 Light rain.
2017-Mar-25 19:00 360 9 5.4 7.0 Light rain.
2017-Mar-25 18:30 020 11 5.4 8.0 Light rain.
2017-Mar-25 18:00 010 11 5.4 8.0 Light rain.
2017-Mar-25 17:30 020 11 5.4 8.0 Light rain.
2017-Mar-25 17:00 020 7 5.4 8.0 Light rain.
2017-Mar-25 16:30 050 13 5.4 9.0 Light rain.
2017-Mar-25 16:00 050 14 5.4 9.0 Light rain.
2017-Mar-25 15:30 060 14 5.4 9.0
2017-Mar-25 15:00 070 13 5.4 9.0
2017-Mar-25 14:30 070 13 5.4 9.0
2017-Mar-25 14:00 060 12 5.4 9.0
2017-Mar-25 13:30 070 12 5.4 9.0
2017-Mar-25 13:00 080 9 5.4 9.0
2017-Mar-25 12:30 090 11 5.4 9.0
2017-Mar-25 12:00 110 13 5.4 9.0
2017-Mar-25 11:30 100 13 5.4 9.0
2017-Mar-25 11:00 110 13 5.4 9.0
2017-Mar-25 10:30 110 13 5.4 9.0
2017-Mar-25 10:00 120 15 5.4 9.0
2017-Mar-25 09:30 120 14 5.4 9.0
2017-Mar-25 09:00 110 15 5.4 9.0
2017-Mar-25 08:30 110 15 5.4 9.0
2017-Mar-25 08:00 110 17 5.410.0
2017-Mar-25 07:30 110 13 5.410.0
2017-Mar-25 07:00 120 5 5.411.0
2017-Mar-25 06:30 100 5 5.411.0
2017-Mar-25 06:00 090 4 5.410.0
2017-Mar-25 05:30 080 4 5.410.0
2017-Mar-25 05:00 070 2 5.410.0
2017-Mar-25 04:30 5.4 9.0
2017-Mar-25 04:00 070 2 5.410.0
2017-Mar-25 03:30 100 4 5.4 9.0
2017-Mar-25 03:00 100 6 5.4 9.0
2017-Mar-25 02:30 110 6 5.4 9.0
2017-Mar-25 02:00 110 8 5.4 9.0